Vertical_Velocity
12 8 3 4 1 -6 17 7 3 3 6 5 5 10 10 7 4 10 4 3 1 -1 -3 2 5 2 3 3 9 4 5 3 2 3 0 2 2 -2 -2 -1 1 0 -1
-12 -1 1 -2 6 10 5 13 5 8 18 4 6 -8 14 7 14 15 4 2 -0 2 3 -4 3 3 2 6 4 2 1 6 5 -0 0 2 7 4 1 -1 2 -3 -3
-5 6 1 -5 3 -1 7 16 12 8 -5 18 22 16 -0 -6 14 13 2 -2 2 -0 2 -1 -5 3 -1 -0 5 3 6 2 0 1 -3 -3 -7 1 1 -1 -2 -1 -2
-2 1 15 13 -8 3 17 4 5 9 -1 15 -15 -12 -6 1 8 6 4 1 4 2 -0 4 -1 -3 0 -4 -10 0 -0 13 -2 9 9 2 -0 -5 -3 1 -3 0 -2
-1 -12 -6 -3 8 7 3 7 15 1 -3 -4 -1 3 -2 2 -2 -9 12 1 4 6 1 8 9 5 5 2 4 3 -1 2 3 2 -3 2 -1 1 -2 -2 -3 3 -6
-1 4 -2 5 -11 2 2 7 6 4 8 2 3 7 10 6 8 -2 -10 -17 2 3 1 -0 -0 2 0 1 3 5 3 3 6 1 10 1 -0 -6 -0 -0 -4 -0 -1
3 0 -1 2 6 -5 -7 -3 -0 -3 1 1 5 -3 0 -10 -10 -1 5 3 -5 -2 5 -0 0 -4 4 4 4 2 4 5 3 1 -3 4 3 4 5 8 -3 0 -1
3 2 1 -3 -4 6 -1 2 -0 1 -1 -4 -4 1 3 2 3 9 5 -2 -5 -7 -7 1 1 -2 0 -1 5 0 -2 -2 -0 1 2 2 3 6 6 4 10 -1 -1
-0 0 5 2 -2 -2 -0 -4 1 -0 -7 -0 7 -1 0 0 0 1 -1 12 7 6 2 -4 -11 -10 -1 -0 1 2 3 4 1 -3 -2 -1 2 3 1 6 5 8 1
1 -0 -2 1 4 -1 -1 2 6 -0 -6 -7 0 3 -2 0 -0 5 3 -0 1 -2 2 13 4 6 -7 -12 -2 -2 0 2 3 2 1 0 1 2 0 1 0 6 10
-0 -0 1 -1 -5 1 5 1 -7 -3 8 11 2 0 1 5 2 1 1 4 3 -1 -0 -4 4 2 1 10 4 -5 -8 -0 -1 -1 -3 0 3 -2 3 1 6 -1 5
1 1 -0 2 5 4 -3 -6 -4 -3 -5 -5 2 2 -2 -6 -2 -1 -2 -4 -1 -1 0 2 1 0 1 -3 1 5 7 -1 -2 -4 -2 5 5 0 7 1 -2 4 5
-2 -1 -1 -3 -4 -5 -3 1 3 2 1 1 -5 -4 -0 4 3 -1 -5 -2 1 -1 0 1 0 -3 -2 -3 4 -2 -3 -0 4 0 -3 8 4 -2 1 6 1 3 2
-1 -2 -2 -1 1 -0 -0 -3 -6 -5 -1 -0 -3 -6 -7 -5 -2 -2 0 1 -2 -2 0 2 1 0 1 -1 -2 -0 -1 -0 -1 1 1 -3 -0 4 1 7 -2 1 1
-0 -1 -1 -2 -2 -1 -1 -2 -4 -5 -5 -8 -5 -1 0 -1 -2 -4 -8 -3 -1 -2 -1 -1 -1 -2 -4 -1 -3 -1 0 -2 -3 -0 1 1 -0 2 2 5 2 4 3
0 1 2 1 0 -2 -2 1 5 7 6 4 2 -1 -3 -1 -0 1 -3 -4 -7 -7 -6 -4 -5 -3 -1 2 6 1 -1 1 -1 -4 -2 0 4 -0 1 3 1 7 8
1 1 1 3 7 9 8 6 3 2 2 4 5 2 -0 2 4 2 -3 1 -3 -2 -1 -1 -2 -2 -1 -1 1 3 1 0 -1 -0 -3 -1 1 0 -1 0 0 0 -1
-1 1 1 -1 -4 -6 -5 -5 -4 -3 -4 -5 -6 -5 -3 -2 -4 -6 -1 3 -1 -5 -7 -5 2 -2 -4 -0 2 -0 -2 -1 -1 3 -0 -3 -3 3 0 -2 -1 -1 -5
-1 -1 -2 -3 -2 -2 -3 -3 -3 -3 -3 -2 -2 -2 -4 -7 -6 -3 -2 -3 -5 -2 -3 -5 -6 -5 -9 -1 -1 -2 -4 -0 -0 -1 -1 -0 -1 0 0 -2 -2 -3 -0
-0 -1 -1 -2 -2 0 0 1 1 -0 -2 -2 -1 -0 -0 -1 0 -0 -2 -2 1 -1 -1 -1 2 -1 -3 -1 -0 1 -2 -7 -6 -1 -1 5 5 0 1 3 -1 -7 5
-1 -1 0 1 -0 -0 -1 -2 -2 -2 -3 -3 -2 0 0 -2 -0 -2 1 -1 1 2 -1 -3 1 -3 0 0 -6 -4 -2 -1 -8 -5 -11 -4 -3 0 2 -2 2 -1 7
-2 -2 -0 1 1 0 -2 -1 -1 -3 -2 -2 -3 -3 -2 -2 -4 -5 -5 -2 -3 -2 -2 -5 -1 1 0 -0 -2 0 5 3 5 -5 -10 -11 -6 -4 -3 3 -4 -0 4
-1 -1 -3 -1 2 -1 -2 -4 -0 -1 -1 -1 -2 -2 -1 -2 -0 -4 -4 -7 -5 -7 -8 -8 -9 -1 2 -1 -0 -0 0 1 0 4 6 5 -4 -3 -5 -3 -1 0 1
0 -1 -2 -3 -2 -0 0 0 -3 -3 -4 -4 -3 -2 -3 -3 -1 -0 -1 -3 -3 -3 -4 -5 -6 -8 -4 -5 -3 -4 -5 -2 -1 -7 -11 -6 -2 12 3 2 -7 -2 -4
1 1 -1 -2 -2 -1 -1 0 0 -0 -1 -1 -1 -1 -1 -1 -2 -0 -3 -2 -2 -2 8 -2 -2 -3 -3 -5 1 5 0 -0 2 -1 -1 -4 3 -6 -7 -4 2 -10 -1
-2 -3 -1 -2 -1 -1 -2 0 0 -0 -1 -1 -0 -1 -1 -1 -2 -1 -7 2 2 0 -3 3 6 -2 2 -0 3 1 -0 1 0 0 -3 -7 -3 -2 3 2 -2 1 1
Height
1508 1499 1493 1486 1483 1481 1482 1482 1484 1488 1492 1497 1490 1499 1496 1508 1512 1516 1519 1523 1527 1530 1534 1538 1541 1543 1545 1548 1549 1551 1554 1555 1558 1560 1562 1564 1565 1566 1568 1569 1571 1572 1574
1507 1502 1496 1491 1486 1481 1482 1482 1486 1488 1492 1495 1496 1498 1496 1506 1513 1514 1516 1520 1524 1528 1531 1535 1538 1540 1543 1544 1547 1549 1551 1553 1555 1557 1560 1562 1563 1562 1563 1565 1566 1567 1569
1516 1510 1500 1496 1491 1488 1483 1486 1487 1489 1493 1492 1493 1498 1503 1509 1510 1512 1514 1519 1523 1526 1530 1533 1536 1537 1540 1543 1544 1546 1548 1550 1552 1554 1555 1558 1556 1557 1558 1559 1560 1562 1564
1520 1515 1509 1496 1497 1495 1487 1491 1492 1490 1492 1494 1500 1504 1509 1512 1511 1510 1515 1519 1523 1524 1528 1531 1534 1537 1538 1540 1542 1544 1545 1547 1548 1550 1550 1551 1552 1552 1552 1552 1554 1557 1558
1529 1519 1515 1511 1505 1500 1495 1495 1496 1496 1499 1501 1505 1502 1510 1512 1512 1511 1514 1518 1522 1524 1526 1529 1531 1533 1535 1537 1539 1541 1541 1543 1544 1545 1547 1548 1548 1549 1549 1547 1547 1549 1551
1533 1530 1525 1517 1511 1508 1502 1500 1499 1500 1503 1507 1506 1505 1508 1512 1512 1511 1511 1514 1521 1524 1524 1527 1529 1530 1532 1533 1535 1535 1536 1537 1539 1541 1542 1542 1542 1543 1543 1543 1543 1543 1544
1537 1532 1526 1521 1520 1515 1513 1512 1511 1509 1510 1509 1507 1508 1508 1512 1515 1514 1517 1519 1522 1523 1523 1525 1525 1527 1529 1530 1530 1530 1531 1532 1533 1535 1536 1537 1537 1539 1539 1539 1539 1536 1538
1540 1537 1533 1530 1525 1522 1522 1521 1517 1515 1512 1512 1512 1512 1515 1516 1514 1514 1514 1517 1519 1520 1518 1522 1523 1524 1524 1525 1525 1525 1526 1527 1527 1528 1529 1530 1531 1532 1533 1533 1534 1530 1529
1543 1540 1537 1534 1531 1527 1525 1524 1524 1522 1520 1523 1519 1519 1518 1518 1517 1516 1515 1516 1514 1514 1516 1516 1517 1519 1520 1521 1521 1521 1521 1520 1520 1520 1521 1522 1523 1523 1524 1525 1525 1525 1521
1545 1542 1539 1536 1535 1534 1532 1530 1526 1524 1524 1523 1522 1521 1520 1520 1518 1518 1516 1516 1514 1512 1512 1511 1511 1510 1512 1515 1515 1515 1515 1514 1514 1514 1513 1513 1514 1514 1515 1515 1516 1516 1515
1546 1544 1542 1541 1539 1537 1535 1532 1531 1530 1528 1526 1525 1524 1521 1519 1518 1518 1516 1515 1512 1509 1509 1509 1508 1508 1507 1506 1507 1508 1508 1507 1506 1506 1505 1505 1505 1506 1504 1505 1506 1505 1506
1547 1545 1543 1541 1539 1537 1535 1533 1531 1530 1527 1527 1524 1523 1521 1520 1518 1517 1515 1513 1510 1507 1506 1504 1503 1501 1500 1501 1501 1500 1500 1498 1496 1497 1496 1494 1496 1495 1493 1495 1494 1494 1495
1547 1546 1544 1542 1540 1538 1535 1533 1532 1530 1528 1526 1525 1524 1521 1518 1517 1514 1513 1512 1507 1505 1503 1501 1497 1494 1493 1492 1493 1491 1491 1490 1489 1487 1487 1485 1485 1484 1484 1484 1482 1483 1483
1547 1546 1544 1543 1541 1539 1536 1534 1531 1529 1526 1525 1523 1521 1520 1519 1515 1512 1511 1506 1505 1502 1499 1496 1493 1491 1488 1486 1485 1484 1482 1481 1480 1479 1478 1477 1477 1476 1476 1474 1474 1473 1472
1546 1545 1544 1543 1541 1540 1538 1536 1534 1531 1529 1527 1524 1521 1517 1514 1511 1508 1508 1506 1502 1499 1496 1492 1488 1486 1484 1482 1478 1476 1474 1471 1469 1470 1469 1467 1466 1467 1466 1467 1466 1465 1464
1544 1543 1542 1541 1539 1537 1535 1533 1531 1528 1525 1522 1518 1514 1512 1509 1507 1504 1502 1500 1497 1495 1490 1487 1483 1481 1480 1478 1474 1469 1465 1462 1460 1457 1456 1456 1455 1455 1456 1456 1455 1456 1454
1541 1541 1539 1537 1536 1534 1532 1530 1527 1524 1522 1518 1515 1511 1507 1504 1502 1498 1496 1494 1493 1490 1487 1484 1481 1476 1474 1469 1467 1461 1458 1454 1451 1448 1446 1444 1442 1442 1442 1443 1442 1442 1443
1538 1537 1536 1535 1534 1532 1530 1527 1524 1521 1518 1515 1512 1508 1505 1502 1498 1495 1492 1488 1485 1482 1479 1475 1471 1464 1464 1462 1458 1453 1449 1446 1443 1440 1437 1435 1432 1431 1429 1428 1427 1427 1428
1536 1535 1534 1532 1530 1528 1526 1524 1521 1519 1516 1513 1509 1506 1502 1499 1496 1493 1490 1486 1481 1475 1470 1466 1463 1459 1458 1456 1452 1446 1444 1441 1436 1433 1431 1430 1425 1422 1421 1419 1416 1414 1413
1533 1532 1531 1529 1527 1525 1522 1520 1517 1514 1511 1508 1505 1502 1499 1495 1491 1487 1483 1478 1473 1468 1464 1460 1457 1454 1451 1449 1445 1441 1439 1434 1427 1423 1422 1421 1417 1415 1414 1412 1410 1404 1403
1531 1530 1529 1527 1524 1521 1519 1516 1513 1510 1507 1503 1500 1497 1493 1489 1485 1481 1476 1471 1466 1461 1458 1453 1450 1445 1443 1439 1436 1436 1434 1429 1421 1416 1412 1409 1408 1406 1405 1404 1401 1396 1398
1528 1527 1525 1523 1520 1518 1515 1512 1510 1506 1502 1498 1495 1491 1488 1484 1479 1475 1470 1466 1461 1456 1451 1446 1441 1439 1437 1433 1431 1429 1427 1424 1419 1412 1405 1401 1400 1396 1394 1392 1389 1387 1387
1523 1521 1520 1518 1516 1514 1510 1507 1504 1501 1496 1493 1489 1486 1482 1478 1474 1470 1465 1460 1456 1452 1446 1441 1434 1429 1428 1425 1423 1421 1418 1414 1410 1403 1397 1394 1390 1385 1380 1377 1374 1375 1374
1518 1516 1514 1512 1510 1509 1506 1503 1499 1495 1490 1487 1483 1480 1475 1471 1468 1465 1461 1456 1452 1448 1444 1439 1433 1426 1422 1419 1416 1412 1407 1403 1398 1392 1384 1379 1376 1373 1368 1364 1361 1360 1360
1514 1512 1509 1506 1504 1502 1499 1497 1493 1488 1484 1480 1477 1473 1469 1465 1461 1458 1455 1451 1448 1445 1442 1437 1431 1424 1417 1415 1412 1408 1401 1395 1389 1383 1376 1367 1363 1358 1354 1350 1347 1346 1346
1510 1507 1504 1501 1498 1495 1492 1490 1485 1481 1477 1473 1470 1466 1462 1458 1455 1451 1447 1447 1442 1441 1437 1431 1427 1420 1415 1409 1405 1400 1394 1388 1381 1374 1368 1359 1352 1345 1340 1337 1335 1334 1333